Back to catalog

USA 118

AliveMilitaryMEO
NORAD 23855·PAYLOAD·🇺🇸 United States

Launched Apr 24, 1996 from Cape Canaveral Space Force Station

Loading…

Next Passes (next 24 hours)

TLE

FreshSource: Mike McCants

Epoch: Sep 14, 2026, 20:22 UTC

1 23855U 96026A   26257.84903721  .00000000  00000-0  00000-0 0    05
2 23855   8.0188 353.5932 0330541 309.3521  47.7680  1.00270000  5297

Track USA 118 in real time with AllMySat

Download on the App Store